Change the Weather History Date:

Wednesday, February 20, 2013

  Actual Average Record
Temperature  
Mean Temperature 30 °F -  
Max Temperature 37 °F - - ()
Min Temperature 24 °F - - ()
Degree Days  
Heating Degree Days 34    
Moisture  
Dew Point 27 °F    
Average Humidity 81    
Maximum Humidity 93    
Minimum Humidity 60    
Precipitation  
Precipitation 0.00 in - - ()
Sea Level Pressure  
Sea Level Pressure 30.00 in    
Wind  
Wind Speed 8 mph ()    
Max Wind Speed 16 mph    
Max Gust Speed -    
Visibility 5.9 miles    
Events      
T = Trace of Precipitation, MM = Missing Value Source: Averaged Metar Reports

Daily Weather History Graph

Daily Weather History Graph

Search for Another Location

Airport or City:

Trip Planner

Search our weather history database for the weather conditions in past years. The results will help you decide how hot, cold, wet, or windy it might be!

Date:

Astronomy

Feb. 20, 2013 Rise Set
Actual Time 6:46 AM CET 5:21 PM CET
Civil Twilight 6:15 AM CET 5:52 PM CET
Nautical Twilight 5:39 AM CET 6:28 PM CET
Astronomical Twilight 5:04 AM CET 7:03 PM CET
Moon 12:14 PM CET (2/20) 3:05 AM CET (2/20)
Length of Visible Light 11h 37m
Length of Day
10h 34m
Waxing Gibbous, 74% of the Moon is Illuminated
Feb 20
Waxing Gibbous
Feb 25
Full
Mar 4
Last Quarter
Mar 11
New
Mar 19
First Quarter

Hourly Weather History & Observations

Time (CET) Temp. Windchill Dew Point Humidity Pressure Visibility Wind Dir Wind Speed Gust Speed Precip Events Conditions
12:15 AM 35.6 °F 30.0 °F 30.2 °F 81% 29.89 in 5.0 mi West 6.7 mph - N/A   Overcast
1:15 AM 33.8 °F 25.4 °F 32.0 °F 93% 29.89 in 6.2 mi NW 11.2 mph - N/A   Mostly Cloudy
1:45 AM 33.8 °F 26.5 °F 32.0 °F 93% 29.89 in 6.2 mi NW 8.9 mph - N/A   Mostly Cloudy
2:15 AM 33.8 °F 25.4 °F 32.0 °F 93% 29.89 in - WNW 11.2 mph - N/A   Clear
2:45 AM 33.8 °F 26.5 °F 32.0 °F 93% 29.92 in - WNW 8.9 mph - N/A   Clear
3:15 AM 33.8 °F 26.5 °F 30.2 °F 87% 29.92 in - WNW 8.9 mph - N/A   Clear
3:45 AM 33.8 °F 26.5 °F 30.2 °F 87% 29.92 in - NW 8.9 mph - N/A   Clear
4:15 AM 33.8 °F 26.5 °F 28.4 °F 81% 29.92 in - NW 8.9 mph - N/A   Clear
4:45 AM 33.8 °F 26.5 °F 28.4 °F 81% 29.95 in - NW 8.9 mph - N/A   Clear
5:15 AM 32.0 °F 25.7 °F 28.4 °F 87% 29.95 in - WNW 6.7 mph - N/A   Clear
5:45 AM - - - N/A% - 6.2 mi NW 13.4 mph - N/A   Clear
6:15 AM 32.0 °F 27.6 °F 26.6 °F 80% 29.95 in - NW 4.5 mph - N/A   Clear
6:45 AM 32.0 °F 25.7 °F 26.6 °F 80% 29.95 in - NW 6.7 mph - N/A   Clear
7:15 AM 32.0 °F - 26.6 °F 80% 29.98 in - NW 2.2 mph - N/A   Clear
7:45 AM 32.0 °F - 26.6 °F 80% 29.98 in 6.2 mi NW 2.2 mph - N/A   Mostly Cloudy
8:15 AM 33.8 °F - 26.6 °F 75% 29.98 in 6.2 mi NW 2.2 mph - N/A   Mostly Cloudy
8:45 AM - - - N/A% - 6.2 mi WNW 8.9 mph - N/A   Clear
9:15 AM 33.8 °F 27.9 °F 26.6 °F 75% 30.01 in 6.2 mi NW 6.7 mph - N/A   Scattered Clouds
9:45 AM 35.6 °F 30.0 °F 26.6 °F 70% 30.01 in 6.2 mi NW 6.7 mph - N/A   Scattered Clouds
10:15 AM 35.6 °F 26.8 °F 26.6 °F 70% 30.01 in 6.2 mi NW 13.4 mph - N/A   Mostly Cloudy
10:45 AM 35.6 °F 26.8 °F 26.6 °F 70% 30.01 in 6.2 mi NW 13.4 mph - N/A   Scattered Clouds
11:15 AM 35.6 °F 26.0 °F 26.6 °F 70% 30.04 in 6.2 mi NW 15.7 mph - N/A   Scattered Clouds
11:45 AM - - - N/A% - 6.2 mi WNW 11.2 mph - N/A   Clear
12:15 PM 35.6 °F 26.8 °F 24.8 °F 65% 30.01 in 6.2 mi NNW 13.4 mph - N/A   Mostly Cloudy
1:15 PM 35.6 °F 26.0 °F 26.6 °F 70% 30.01 in 6.2 mi North 15.7 mph - N/A   Mostly Cloudy
1:45 PM 35.6 °F 26.8 °F 26.6 °F 70% 30.01 in 6.2 mi NNW 13.4 mph - N/A   Mostly Cloudy
2:15 PM 35.6 °F 26.8 °F 26.6 °F 70% 30.01 in 6.2 mi NNW 13.4 mph - N/A   Scattered Clouds
2:45 PM - - - N/A% - 6.2 mi NW 11.2 mph - N/A   Scattered Clouds
3:15 PM 37.4 °F 30.9 °F 26.6 °F 65% 30.01 in 6.2 mi NNW 8.9 mph - N/A   Scattered Clouds
3:45 PM 35.6 °F 28.7 °F 23.0 °F 60% 30.01 in 6.2 mi NNW 8.9 mph - N/A   Scattered Clouds
4:15 PM 35.6 °F 27.7 °F 26.6 °F 70% 30.01 in 6.2 mi NNW 11.2 mph - N/A   Scattered Clouds
4:45 PM 33.8 °F 25.4 °F 24.8 °F 70% 30.04 in 6.2 mi NNW 11.2 mph - N/A   Scattered Clouds
5:45 PM - - - N/A% - 6.2 mi NNW 8.9 mph - N/A   Scattered Clouds
6:15 PM 30.2 °F 23.5 °F 24.8 °F 80% 30.06 in - NW 6.7 mph - N/A   Clear
6:45 PM 28.4 °F 21.4 °F 24.8 °F 86% 30.06 in - NW 6.7 mph - N/A   Clear
7:15 PM 26.6 °F 19.2 °F 24.8 °F 93% 30.06 in - NW 6.7 mph - N/A   Clear
7:45 PM 26.6 °F 19.2 °F 24.8 °F 93% 30.06 in - NW 6.7 mph - N/A   Clear
8:15 PM 28.4 °F 21.4 °F 24.8 °F 86% 30.09 in - NW 6.7 mph - N/A   Clear
8:45 PM - - - N/A% - 3.1 mi NW 6.7 mph - N/A   Clear
9:15 PM 24.8 °F 19.2 °F 23.0 °F 93% 30.09 in - WNW 4.5 mph - N/A   Clear
9:45 PM 26.6 °F 21.3 °F 24.8 °F 93% 30.09 in - WNW 4.5 mph - N/A   Clear
10:15 PM 26.6 °F 19.2 °F 24.8 °F 93% 30.09 in - WNW 6.7 mph - N/A   Clear
10:45 PM 24.8 °F 19.2 °F 23.0 °F 93% 30.09 in - WNW 4.5 mph - N/A   Clear
11:15 PM 26.6 °F 19.2 °F 24.8 °F 93% 30.09 in - WNW 6.7 mph - N/A   Clear
11:45 PM - - - N/A% - 3.1 mi North - - N/A   Mostly Cloudy